Location: Vancouver
(49.2500°N, 123.1330°W)
Time: 05:22:12
(UTC-07:00)

A-11 Canister half - Visible Passes

Search period start: 04 September 2015 00:00
Search period end: 14 September 2015 00:00
Orbit: 1525 x 1685 km, 47.3° (Epoch: 02 September)

Date Brightness Start Highest point End Pass type
(mag) Time Alt. Az. Time Alt. Az. Time Alt. Az.
04 Sep 8.9 01:53:25 10° W 02:03:23 76° SSW 02:13:32 10° ESE visible
04 Sep 9.3 03:58:29 10° WNW 04:07:52 45° SW 04:17:15 10° SSE visible
04 Sep 9.3 21:23:28 10° SSW 21:32:22 44° SE 21:41:36 10° ENE visible
04 Sep 8.9 23:26:59 10° WSW 23:36:45 76° SSE 23:46:50 10° E visible
05 Sep 8.9 01:31:51 10° W 01:41:48 77° S 01:51:57 10° ESE visible
05 Sep 9.2 03:36:54 10° WNW 03:46:20 47° SW 03:55:46 10° SE visible
05 Sep 10.3 05:43:53 10° W 05:49:43 16° SW 05:55:03 10° SSW visible
05 Sep 9.4 21:02:04 10° SSW 21:10:50 42° SE 21:19:58 10° ENE visible
05 Sep 8.9 23:05:26 10° WSW 23:15:10 75° SSE 23:25:14 10° E visible
06 Sep 8.9 01:10:17 10° W 01:20:12 78° S 01:30:21 10° ESE visible
06 Sep 9.2 03:15:18 10° WNW 03:24:47 48° SSW 03:34:17 10° SE visible
06 Sep 10.2 05:22:16 10° W 05:28:13 17° SW 05:33:56 10° SSW visible
06 Sep 9.4 20:40:39 10° SSW 20:49:18 41° SE 20:58:21 10° ENE visible
06 Sep 8.9 22:43:54 10° WSW 22:53:35 74° SSE 23:00:58 21° E visible
07 Sep 8.9 00:48:43 10° W 00:58:36 78° S 00:59:08 76° SSE visible
07 Sep 9.8 02:53:43 10° WNW 03:07:28 33° SSE 03:12:48 10° SE visible
07 Sep 10.1 05:06:03 19° WSW 05:06:43 19° SW 05:12:47 10° SSW visible
07 Sep 9.5 20:19:15 10° SSW 20:27:47 39° SE 20:36:43 10° ENE visible
07 Sep 9.0 22:22:22 10° WSW 22:32:01 73° SSE 22:39:23 21° E visible
08 Sep 8.9 00:27:09 10° W 00:37:01 79° S 00:37:36 76° SSE visible
08 Sep 10.2 02:32:08 10° WNW 02:50:05 14° SE 02:51:18 10° SE visible
08 Sep 10.3 04:48:37 16° SSW 04:48:37 16° SSW 04:51:35 10° S visible
08 Sep 9.6 19:57:51 10° SSW 20:06:17 38° SE 20:15:05 10° ENE visible
08 Sep 9.0 22:00:51 10° WSW 22:10:27 72° SSE 22:18:10 19° E visible
09 Sep 8.9 00:05:35 10° W 00:15:26 79° S 00:16:24 73° SE visible
09 Sep 10.1 02:10:34 10° WNW 02:32:09 - SE 02:14:38 28° W visible
09 Sep10.804:30:39S04:30:39S04:12:53WNWvisible
09 Sep 9.0 21:39:19 10° WSW 21:48:53 70° SSE 21:57:05 17° E visible
09 Sep 8.9 23:44:01 10° W 23:53:51 80° S 23:55:20 68° ESE visible
10 Sep 10.0 01:48:59 10° WNW 01:53:35 31° W 01:53:35 31° W visible
10 Sep11.204:12:19S04:12:19S03:51:50WNWvisible
10 Sep 9.0 21:17:48 10° WSW 21:27:19 69° SSE 21:36:06 14° E visible
10 Sep 8.9 23:22:28 10° W 23:32:15 80° S 23:34:21 61° ESE visible
11 Sep 9.9 01:27:25 10° WNW 01:32:36 34° W 01:32:36 34° W visible
11 Sep 9.1 20:56:17 10° WSW 21:05:45 68° SSE 21:15:10 12° E visible
11 Sep 8.9 23:00:54 10° W 23:10:40 81° S 23:13:25 54° ESE visible
12 Sep 9.7 01:05:51 10° WNW 01:11:41 39° W 01:11:41 39° W visible
12 Sep 9.1 20:34:47 10° WSW 20:44:12 66° SSE 20:53:59 10° E visible
12 Sep 8.9 22:39:21 10° W 22:49:05 81° S 22:52:32 48° ESE visible
13 Sep 9.6 00:44:16 10° WNW 00:50:48 44° WSW 00:50:48 44° WSW visible
13 Sep 9.1 20:13:16 10° SW 20:22:39 65° SSE 20:32:23 10° E visible
13 Sep 9.0 22:17:47 10° W 22:27:30 81° S 22:31:41 41° ESE visible
